TimeEDT,TemperatureF,Dew PointF,Humidity,Sea Level PressureIn,VisibilityMPH,Wind Direction,Wind SpeedMPH,Gust SpeedMPH,PrecipitationIn,Events,Conditions,WindDirDegrees,DateUTC
12:53 AM,60.1,52.0,75,30.03,10.0,WSW,6.9,-,N/A,,Clear,240,2012-11-01 04:53:00
1:53 AM,60.1,52.0,75,30.03,10.0,SW,9.2,-,N/A,,Clear,230,2012-11-01 05:53:00
2:53 AM,60.1,53.1,78,30.02,10.0,SW,8.1,-,N/A,,Clear,230,2012-11-01 06:53:00
3:53 AM,60.1,54.0,80,30.02,10.0,SW,8.1,-,N/A,,Clear,230,2012-11-01 07:53:00
4:53 AM,59.0,55.0,87,30.02,10.0,SW,5.8,-,N/A,,Clear,230,2012-11-01 08:53:00
6:53 AM,59.0,55.9,90,30.02,10.0,SW,3.5,-,N/A,,Clear,230,2012-11-01 10:53:00
7:53 AM,59.0,55.0,87,30.03,10.0,SSW,5.8,-,N/A,,Clear,210,2012-11-01 11:53:00
8:53 AM,63.0,57.9,84,30.04,10.0,WSW,5.8,-,N/A,,Clear,240,2012-11-01 12:53:00
9:53 AM,69.1,57.9,68,30.05,10.0,WSW,5.8,-,N/A,,Clear,250,2012-11-01 13:53:00
10:53 AM,73.9,57.9,57,30.06,10.0,West,12.7,-,N/A,,Clear,280,2012-11-01 14:53:00
11:53 AM,75.0,57.0,53,30.04,10.0,West,12.7,19.6,N/A,,Clear,270,2012-11-01 15:53:00
12:53 PM,78.1,51.1,39,30.01,10.0,West,12.7,-,N/A,,Clear,280,2012-11-01 16:53:00
1:53 PM,79.0,52.0,39,29.97,10.0,WSW,17.3,24.2,N/A,,Partly Cloudy,240,2012-11-01 17:53:00
2:53 PM,78.1,52.0,40,29.95,10.0,WSW,15.0,23.0,N/A,,Mostly Cloudy,240,2012-11-01 18:53:00
3:53 PM,79.0,55.0,44,29.94,10.0,WSW,17.3,24.2,N/A,,Mostly Cloudy,250,2012-11-01 19:53:00
4:53 PM,77.0,55.0,47,29.94,10.0,West,13.8,23.0,N/A,,Mostly Cloudy,260,2012-11-01 20:53:00
5:53 PM,75.9,54.0,46,29.95,10.0,West,13.8,19.6,N/A,,Mostly Cloudy,260,2012-11-01 21:53:00
6:53 PM,73.9,55.9,53,29.97,10.0,West,11.5,-,N/A,,Mostly Cloudy,270,2012-11-01 22:53:00
7:53 PM,72.0,57.9,61,29.99,10.0,West,8.1,-,N/A,,Clear,280,2012-11-01 23:53:00
8:53 PM,70.0,60.1,71,30.00,10.0,West,8.1,-,N/A,,Clear,260,2012-11-02 00:53:00
9:53 PM,66.9,60.1,79,30.01,10.0,West,6.9,-,N/A,,Clear,280,2012-11-02 01:53:00
10:53 PM,64.9,59.0,81,30.04,10.0,WNW,5.8,-,N/A,,Clear,290,2012-11-02 02:53:00
11:53 PM,64.0,59.0,84,30.04,10.0,WNW,6.9,-,N/A,,Clear,300,2012-11-02 03:53:00